Volver al catálogo

COSMOS 1275 DEB

LostPO
NORAD 42190·DEBRIS·🇷🇺 Russia

Lanzado Jun 4, 1981 desde Plesetsk Cosmodrome

Loading…

Próximos Pases (próximas 24 horas)

TLE

ObsoletoSource: Space-Track

Época: Sep 28, 2022, 05:00 UTC

1 42190U 81053TE  22271.20900850  .00003011  00000-0  14148-2 0  9996
2 42190  82.9269  89.2387 0054120 214.0889 145.6812 14.19002104968603

Sigue COSMOS 1275 DEB en tiempo real con AllMySat

Download on the App Store